Belvidere, Illinois, United States (61008)
Lat: 42.26N, Lon: 88.84W
Wx Zone: ILZ004
Local Info
Past Weather Observations for Wednesday, August 27, 2014

NOTE: This archive is for the closest National Weather Service station to Belvidere. Information may differ from the station used for current weather conditions.

Click here for Long-term Archive

Time Weather Temperature Dewpoint Humidity Pressure Winds Precip Visibility
23:54
Mostly Cloudy
64°F / 18°C 63°F / 17°C 94% 30.15 in
(1021 mb)
Calm - 10SM
22:54
Mostly Cloudy
66°F / 19°C 63°F / 17°C 88% 30.15 in
(1021 mb)
ENE 6.9 mph
(ENE 11 kph)
- 10SM
21:54
Mostly Cloudy
66°F / 19°C 63°F / 17°C 88% 30.15 in
(1021 mb)
E 5.8 mph
(E 9 kph)
- 10SM
20:54
Mostly Cloudy
68°F / 20°C 63°F / 17°C 83% 30.15 in
(1021 mb)
E 6.9 mph
(E 11 kph)
- 10SM
19:54
Mostly Cloudy
72°F / 22°C 63°F / 17°C 73% 30.12 in
(1020 mb)
ENE 9.2 mph
(ENE 15 kph)
- 10SM
18:54
Mostly Cloudy
72°F / 22°C 61°F / 16°C 69% 30.09 in
(1019 mb)
ENE 6.9 mph
(ENE 11 kph)
- 10SM
17:54
Overcast
75°F / 24°C 61°F / 16°C 61% 30.12 in
(1020 mb)
ENE 8.1 mph
(ENE 13 kph)
- 10SM
16:54
Overcast
75°F / 24°C 61°F / 16°C 61% 30.12 in
(1020 mb)
SE 3.5 mph
(SE 6 kph)
- 10SM
15:54
Overcast
77°F / 25°C 59°F / 15°C 54% 30.15 in
(1021 mb)
NNW 3.5 mph
(NNW 6 kph)
- 10SM
14:54
Overcast
77°F / 25°C 59°F / 15°C 54% 30.15 in
(1021 mb)
NNW 8.1 mph
(NNW 13 kph)
- 10SM
13:54
Overcast
79°F / 26°C 55°F / 13°C 45% 30.15 in
(1021 mb)
WNW 8.1 mph
(WNW 13 kph)
- 10SM
12:54
Overcast
79°F / 26°C 57°F / 14°C 48% 30.18 in
(1022 mb)
NW 5.8 mph
(NW 9 kph)
- 10SM
11:54
Mostly Cloudy
81°F / 27°C 57°F / 14°C 45% 30.18 in
(1022 mb)
Variable 3.5 mph
(Variable 6 kph)
- 10SM
10:54
Mostly Cloudy
79°F / 26°C 61°F / 16°C 54% 30.18 in
(1022 mb)
Variable 4.6 mph
(Variable 7 kph)
- 10SM
09:54
Mostly Cloudy
77°F / 25°C 59°F / 15°C 54% 30.18 in
(1022 mb)
ESE 4.6 mph
(ESE 7 kph)
- 10SM
08:54
Mostly Cloudy
73°F / 23°C 59°F / 15°C 61% 30.18 in
(1022 mb)
E 3.5 mph
(E 6 kph)
- 10SM
07:54
Partly Cloudy
72°F / 22°C 57°F / 14°C 61% 30.15 in
(1021 mb)
E 8.1 mph
(E 13 kph)
- 10SM
06:54
Partly Cloudy
68°F / 20°C 57°F / 14°C 69% 30.15 in
(1021 mb)
NE 9.2 mph
(NE 15 kph)
- 10SM
05:54
Partly Cloudy
64°F / 18°C 57°F / 14°C 78% 30.15 in
(1021 mb)
NE 6.9 mph
(NE 11 kph)
- 10SM
04:54
Mostly Cloudy
64°F / 18°C 57°F / 14°C 78% 30.18 in
(1022 mb)
N 6.9 mph
(N 11 kph)
- 10SM
03:54
Overcast
66°F / 19°C 57°F / 14°C 73% 30.15 in
(1021 mb)
N 4.6 mph
(N 7 kph)
- 10SM
02:54
Overcast
66°F / 19°C 57°F / 14°C 73% 30.15 in
(1021 mb)
NE 5.8 mph
(NE 9 kph)
- 10SM
01:54
Overcast
68°F / 20°C 59°F / 15°C 73% 30.15 in
(1021 mb)
NE 8.1 mph
(NE 13 kph)
- 10SM
00:54
Overcast
68°F / 20°C 61°F / 16°C 78% 30.15 in
(1021 mb)
N 5.8 mph
(N 9 kph)
- 10SM
Time Weather Temperature Dewpoint Humidity Pressure Winds Precip Visibility


Weather for websites

WeatherForYou.com, LLC is not responsible for any damages or problems caused by this service. Current weather conditions are obtained from the closest station including government and personal stations which may have varying degrees of accuracy. Weather forecasts are derived from the NOAA NDFD. Like all things, this site belongs to Jesus Christ... He just trusts me to maintain it. If you have any questions or comments email webmaster@weatherforyou.com

Copyright © 2014, WeatherForYou.com LLC. All rights reserved.